Location: Unspecified
(48.2082°N, 0.0000°E)
Time: 06:18:55
(UTC+00:00)

A-11 Canister half - Pass Details

Date: 14 August 2020
Orbit: 1514 x 1686 km, 47.2° (Epoch: 21 September)

Event Time Altitude Azimuth Distance (km) Brightness Sun altitude
Rises 23:31:10 0° 291° (WNW) 4,863 12.0 -27.4°
Reaches altitude 10° 23:34:45 10° 281° (W) 3,896 11.3 -27.5°
Maximum altitude 23:42:58 30° 225° (SW) 2,656 9.9 -27.6°
Enters shadow 23:43:07 30° 224° (SW) 2,657 9.9 -27.6°
